Time,TemperatureF,DewpointF,PressureIn,WindDirection,WindDirectionDegrees,WindSpeedMPH,WindSpeedGustMPH,Humidity,HourlyPrecipIn,Conditions,Clouds,dailyrainin,SolarRadiationWatts/m^2,SoftwareType,DateUTC
2013-02-09 00:01:00,26.0,23.0,-100.00,West,269,3.0,5.0,87,0.00,,,0.00,0.000000,,2013-02-09 07:01:00,
2013-02-09 00:11:00,26.0,23.0,-100.00,West,269,3.0,5.0,87,0.00,,,0.00,0.000000,,2013-02-09 07:11:00,
2013-02-09 00:21:00,26.0,23.0,-100.00,West,269,3.0,5.0,87,0.00,,,0.00,0.000000,,2013-02-09 07:21:00,
2013-02-09 00:31:00,26.0,23.0,-100.00,West,269,3.0,5.0,87,0.00,,,0.00,0.000000,,2013-02-09 07:31:00,
2013-02-09 00:40:00,26.0,22.0,-100.00,West,273,2.0,7.0,83,0.00,,,-99.99,0.000000,,2013-02-09 07:40:00,
2013-02-09 01:01:00,26.0,22.0,-100.00,West,273,2.0,7.0,83,0.00,,,-99.99,0.000000,,2013-02-09 08:01:00,
2013-02-09 01:11:00,26.0,22.0,-100.00,West,273,2.0,7.0,83,0.00,,,-99.99,0.000000,,2013-02-09 08:11:00,
2013-02-09 01:21:00,26.0,22.0,-100.00,West,273,2.0,7.0,83,0.00,,,-99.99,0.000000,,2013-02-09 08:21:00,
2013-02-09 01:31:00,26.0,22.0,-100.00,West,273,2.0,7.0,83,0.00,,,-99.99,0.000000,,2013-02-09 08:31:00,
2013-02-09 01:40:00,26.0,21.0,-100.00,NW,310,5.0,7.0,82,0.00,,,0.00,0.000000,,2013-02-09 08:40:00,
2013-02-09 02:03:00,26.0,21.0,-100.00,NW,310,5.0,7.0,82,0.00,,,0.00,0.000000,,2013-02-09 09:03:00,
2013-02-09 02:11:00,26.0,21.0,-100.00,NW,310,5.0,7.0,82,0.00,,,0.00,0.000000,,2013-02-09 09:11:00,
2013-02-09 02:21:00,26.0,21.0,-100.00,NW,310,5.0,7.0,82,0.00,,,0.00,0.000000,,2013-02-09 09:21:00,
2013-02-09 02:31:00,26.0,21.0,-100.00,NW,310,5.0,7.0,82,0.00,,,0.00,0.000000,,2013-02-09 09:31:00,
2013-02-09 02:40:00,25.0,20.0,-100.00,WNW,294,1.0,6.0,81,0.00,,,0.00,0.000000,,2013-02-09 09:40:00,
2013-02-09 03:01:00,25.0,20.0,-100.00,WNW,294,1.0,6.0,81,0.00,,,0.00,0.000000,,2013-02-09 10:01:00,
2013-02-09 03:11:00,25.0,20.0,-100.00,WNW,294,1.0,6.0,81,0.00,,,0.00,0.000000,,2013-02-09 10:11:00,
2013-02-09 03:21:00,25.0,20.0,-100.00,WNW,294,1.0,6.0,81,0.00,,,0.00,0.000000,,2013-02-09 10:21:00,
2013-02-09 03:31:00,25.0,20.0,-100.00,WNW,294,1.0,6.0,81,0.00,,,0.00,0.000000,,2013-02-09 10:31:00,
2013-02-09 03:40:00,26.0,19.0,-100.00,NW,325,4.0,9.0,76,0.00,,,0.00,0.000000,,2013-02-09 10:40:00,
2013-02-09 04:01:00,26.0,19.0,-100.00,NW,325,4.0,9.0,76,0.00,,,0.00,0.000000,,2013-02-09 11:01:00,
2013-02-09 04:11:00,26.0,19.0,-100.00,NW,325,4.0,9.0,76,0.00,,,0.00,0.000000,,2013-02-09 11:11:00,
2013-02-09 04:22:00,26.0,19.0,-100.00,NW,325,4.0,9.0,76,0.00,,,0.00,0.000000,,2013-02-09 11:22:00,
2013-02-09 04:31:00,26.0,19.0,-100.00,NW,325,4.0,9.0,76,0.00,,,0.00,0.000000,,2013-02-09 11:31:00,
2013-02-09 04:40:00,25.0,17.0,-100.00,NW,306,0.0,7.0,72,0.00,,,0.00,0.000000,,2013-02-09 11:40:00,
2013-02-09 05:02:00,25.0,17.0,-100.00,NW,306,0.0,7.0,72,0.00,,,0.00,0.000000,,2013-02-09 12:02:00,
2013-02-09 05:11:00,25.0,17.0,-100.00,NW,306,0.0,7.0,72,0.00,,,0.00,0.000000,,2013-02-09 12:11:00,
2013-02-09 05:21:00,25.0,17.0,-100.00,NW,306,0.0,7.0,72,0.00,,,0.00,0.000000,,2013-02-09 12:21:00,
2013-02-09 05:32:00,25.0,17.0,-100.00,NW,306,0.0,7.0,72,0.00,,,0.00,0.000000,,2013-02-09 12:32:00,
2013-02-09 05:40:00,22.0,16.0,-100.00,NNE,18,0.0,3.0,76,0.00,,,-99.99,0.000000,,2013-02-09 12:40:00,
2013-02-09 06:02:00,22.0,16.0,-100.00,NNE,18,0.0,3.0,76,0.00,,,-99.99,0.000000,,2013-02-09 13:02:00,
2013-02-09 06:11:00,22.0,16.0,-100.00,NNE,18,0.0,3.0,76,0.00,,,-99.99,0.000000,,2013-02-09 13:11:00,
2013-02-09 06:22:00,22.0,16.0,-100.00,NNE,18,0.0,3.0,76,0.00,,,-99.99,0.000000,,2013-02-09 13:22:00,
2013-02-09 06:32:00,22.0,16.0,-100.00,NNE,18,0.0,3.0,76,0.00,,,-99.99,0.000000,,2013-02-09 13:32:00,
2013-02-09 06:40:00,22.0,15.0,-100.00,NW,309,4.0,6.0,75,0.00,,,0.00,0.000000,,2013-02-09 13:40:00,
2013-02-09 07:01:00,22.0,15.0,-100.00,NW,309,4.0,6.0,75,0.00,,,0.00,0.000000,,2013-02-09 14:01:00,
2013-02-09 07:11:00,22.0,15.0,-100.00,NW,309,4.0,6.0,75,0.00,,,0.00,0.000000,,2013-02-09 14:11:00,
2013-02-09 07:21:00,22.0,15.0,-100.00,NW,309,4.0,6.0,75,0.00,,,0.00,0.000000,,2013-02-09 14:21:00,
2013-02-09 07:31:00,22.0,15.0,-100.00,NW,309,4.0,6.0,75,0.00,,,0.00,0.000000,,2013-02-09 14:31:00,
2013-02-09 07:40:00,22.0,16.0,-100.00,NNE,15,0.0,4.0,76,0.00,,,0.00,8.000000,,2013-02-09 14:40:00,
2013-02-09 08:02:00,22.0,16.0,-100.00,NNE,15,0.0,4.0,76,0.00,,,0.00,8.000000,,2013-02-09 15:02:00,
2013-02-09 08:11:00,22.0,16.0,-100.00,NNE,15,0.0,4.0,76,0.00,,,0.00,8.000000,,2013-02-09 15:11:00,
2013-02-09 08:21:00,22.0,16.0,-100.00,NNE,15,0.0,4.0,76,0.00,,,0.00,8.000000,,2013-02-09 15:21:00,
2013-02-09 08:32:00,22.0,16.0,-100.00,NNE,15,0.0,4.0,76,0.00,,,0.00,8.000000,,2013-02-09 15:32:00,
2013-02-09 08:40:00,27.0,19.0,-100.00,WSW,244,2.0,4.0,72,0.00,,,0.00,100.000000,,2013-02-09 15:40:00,
2013-02-09 09:01:00,27.0,19.0,-100.00,WSW,244,2.0,4.0,72,0.00,,,0.00,100.000000,,2013-02-09 16:01:00,
2013-02-09 10:01:00,39.0,23.0,-100.00,ENE,58,0.0,3.0,52,0.00,,,0.00,296.000000,,2013-02-09 17:01:00,
2013-02-09 10:40:00,38.0,22.0,-100.00,East,95,3.0,5.0,52,-99.99,,,0.00,435.000000,,2013-02-09 17:40:00,
2013-02-09 11:02:00,38.0,22.0,-100.00,East,95,3.0,5.0,52,-99.99,,,0.00,435.000000,,2013-02-09 18:02:00,
2013-02-09 11:12:00,38.0,22.0,-100.00,East,95,3.0,5.0,52,-99.99,,,0.00,435.000000,,2013-02-09 18:12:00,
2013-02-09 11:23:00,38.0,22.0,-100.00,East,95,3.0,5.0,52,-99.99,,,0.00,435.000000,,2013-02-09 18:23:00,
2013-02-09 11:32:00,38.0,22.0,-100.00,East,95,3.0,5.0,52,-99.99,,,0.00,435.000000,,2013-02-09 18:32:00,
2013-02-09 11:40:00,41.0,22.0,-100.00,SSE,157,1.0,5.0,47,0.00,,,0.00,497.000000,,2013-02-09 18:40:00,
2013-02-09 12:01:00,41.0,22.0,-100.00,SSE,157,1.0,5.0,47,0.00,,,0.00,497.000000,,2013-02-09 19:01:00,
2013-02-09 12:11:00,41.0,22.0,-100.00,SSE,157,1.0,5.0,47,0.00,,,0.00,497.000000,,2013-02-09 19:11:00,
2013-02-09 12:22:00,41.0,22.0,-100.00,SSE,157,1.0,5.0,47,0.00,,,0.00,497.000000,,2013-02-09 19:22:00,
2013-02-09 12:32:00,41.0,22.0,-100.00,SSE,157,1.0,5.0,47,0.00,,,0.00,497.000000,,2013-02-09 19:32:00,
2013-02-09 12:40:00,39.0,20.0,-100.00,NNE,25,3.0,4.0,46,0.00,,,0.00,417.000000,,2013-02-09 19:40:00,
2013-02-09 13:01:00,39.0,20.0,-100.00,NNE,25,3.0,4.0,46,0.00,,,0.00,417.000000,,2013-02-09 20:01:00,
2013-02-09 13:11:00,39.0,20.0,-100.00,NNE,25,3.0,4.0,46,0.00,,,0.00,417.000000,,2013-02-09 20:11:00,
2013-02-09 13:21:00,39.0,20.0,-100.00,NNE,25,3.0,4.0,46,0.00,,,0.00,417.000000,,2013-02-09 20:21:00,
2013-02-09 13:32:00,39.0,20.0,-100.00,NNE,25,3.0,4.0,46,0.00,,,0.00,417.000000,,2013-02-09 20:32:00,
2013-02-09 13:40:00,39.0,20.0,-100.00,North,9,3.0,6.0,46,0.00,,,-99.99,435.000000,,2013-02-09 20:40:00,
2013-02-09 14:02:00,39.0,20.0,-100.00,North,9,3.0,6.0,46,0.00,,,-99.99,435.000000,,2013-02-09 21:02:00,
2013-02-09 14:11:00,39.0,20.0,-100.00,North,9,3.0,6.0,46,0.00,,,-99.99,435.000000,,2013-02-09 21:11:00,
2013-02-09 14:21:00,39.0,20.0,-100.00,North,9,3.0,6.0,46,0.00,,,-99.99,435.000000,,2013-02-09 21:21:00,
2013-02-09 14:31:00,39.0,20.0,-100.00,North,9,3.0,6.0,46,0.00,,,-99.99,435.000000,,2013-02-09 21:31:00,
2013-02-09 14:40:00,39.0,17.0,-100.00,North,0,4.0,6.0,40,0.00,,,0.00,505.000000,,2013-02-09 21:40:00,
2013-02-09 15:01:00,39.0,17.0,-100.00,North,0,4.0,6.0,40,0.00,,,0.00,505.000000,,2013-02-09 22:01:00,
2013-02-09 15:11:00,39.0,17.0,-100.00,North,0,4.0,6.0,40,0.00,,,0.00,505.000000,,2013-02-09 22:11:00,
2013-02-09 15:21:00,39.0,17.0,-100.00,North,0,4.0,6.0,40,0.00,,,0.00,505.000000,,2013-02-09 22:21:00,
2013-02-09 15:32:00,39.0,17.0,-100.00,North,0,4.0,6.0,40,0.00,,,0.00,505.000000,,2013-02-09 22:32:00,
2013-02-09 15:40:00,40.0,20.0,-100.00,NNE,14,4.0,8.0,44,0.00,,,0.00,343.000000,,2013-02-09 22:40:00,
2013-02-09 16:02:00,40.0,20.0,-100.00,NNE,14,4.0,8.0,44,0.00,,,0.00,343.000000,,2013-02-09 23:02:00,
2013-02-09 16:11:00,40.0,20.0,-100.00,NNE,14,4.0,8.0,44,0.00,,,0.00,343.000000,,2013-02-09 23:11:00,
2013-02-09 16:21:00,40.0,20.0,-100.00,NNE,14,4.0,8.0,44,0.00,,,0.00,343.000000,,2013-02-09 23:21:00,
2013-02-09 16:32:00,40.0,20.0,-100.00,NNE,14,4.0,8.0,44,0.00,,,0.00,343.000000,,2013-02-09 23:32:00,
2013-02-09 16:40:00,35.0,20.0,-100.00,NNE,15,4.0,7.0,53,0.00,,,0.00,185.000000,,2013-02-09 23:40:00,
2013-02-09 17:02:00,35.0,20.0,-100.00,NNE,15,4.0,7.0,53,0.00,,,0.00,185.000000,,2013-02-10 00:02:00,
2013-02-09 17:12:00,35.0,20.0,-100.00,NNE,15,4.0,7.0,53,0.00,,,0.00,185.000000,,2013-02-10 00:12:00,
2013-02-09 17:22:00,35.0,20.0,-100.00,NNE,15,4.0,7.0,53,0.00,,,0.00,185.000000,,2013-02-10 00:22:00,
2013-02-09 17:32:00,35.0,20.0,-100.00,NNE,15,4.0,7.0,53,0.00,,,0.00,185.000000,,2013-02-10 00:32:00,
2013-02-09 17:40:00,31.0,22.0,-100.00,NW,319,4.0,5.0,69,0.00,,,0.00,12.000000,,2013-02-10 00:40:00,
2013-02-09 18:01:00,31.0,22.0,-100.00,NW,319,4.0,5.0,69,0.00,,,0.00,12.000000,,2013-02-10 01:01:00,
2013-02-09 18:12:00,31.0,22.0,-100.00,NW,319,4.0,5.0,69,0.00,,,0.00,12.000000,,2013-02-10 01:12:00,
2013-02-09 18:21:00,31.0,22.0,-100.00,NW,319,4.0,5.0,69,0.00,,,0.00,12.000000,,2013-02-10 01:21:00,
2013-02-09 18:32:00,31.0,22.0,-100.00,NW,319,4.0,5.0,69,0.00,,,0.00,12.000000,,2013-02-10 01:32:00,
2013-02-09 18:40:00,30.0,24.0,-100.00,NNW,336,3.0,7.0,78,0.00,,,0.00,0.000000,,2013-02-10 01:40:00,
2013-02-09 19:01:00,30.0,24.0,-100.00,NNW,336,3.0,7.0,78,0.00,,,0.00,0.000000,,2013-02-10 02:01:00,
2013-02-09 19:11:00,30.0,24.0,-100.00,NNW,336,3.0,7.0,78,0.00,,,0.00,0.000000,,2013-02-10 02:11:00,
2013-02-09 19:22:00,30.0,24.0,-100.00,NNW,336,3.0,7.0,78,0.00,,,0.00,0.000000,,2013-02-10 02:22:00,
2013-02-09 19:32:00,30.0,24.0,-100.00,NNW,336,3.0,7.0,78,0.00,,,0.00,0.000000,,2013-02-10 02:32:00,
2013-02-09 19:40:00,30.0,23.0,-100.00,NW,316,3.0,8.0,76,0.00,,,0.00,0.000000,,2013-02-10 02:40:00,
2013-02-09 20:02:00,30.0,23.0,-100.00,NW,316,3.0,8.0,76,0.00,,,0.00,0.000000,,2013-02-10 03:02:00,
2013-02-09 20:11:00,30.0,23.0,-100.00,NW,316,3.0,8.0,76,0.00,,,0.00,0.000000,,2013-02-10 03:11:00,
2013-02-09 20:21:00,30.0,23.0,-100.00,NW,316,3.0,8.0,76,0.00,,,0.00,0.000000,,2013-02-10 03:21:00,
2013-02-09 20:32:00,30.0,23.0,-100.00,NW,316,3.0,8.0,76,0.00,,,0.00,0.000000,,2013-02-10 03:32:00,
2013-02-09 20:40:00,29.0,22.0,-100.00,NNW,334,3.0,6.0,74,0.00,,,0.00,0.000000,,2013-02-10 03:40:00,
2013-02-09 21:01:00,29.0,22.0,-100.00,NNW,334,3.0,6.0,74,0.00,,,0.00,0.000000,,2013-02-10 04:01:00,
2013-02-09 21:11:00,29.0,22.0,-100.00,NNW,334,3.0,6.0,74,0.00,,,0.00,0.000000,,2013-02-10 04:11:00,
2013-02-09 21:21:00,29.0,22.0,-100.00,NNW,334,3.0,6.0,74,0.00,,,0.00,0.000000,,2013-02-10 04:21:00,
2013-02-09 21:32:00,29.0,22.0,-100.00,NNW,334,3.0,6.0,74,0.00,,,0.00,0.000000,,2013-02-10 04:32:00,
2013-02-09 21:40:00,29.0,22.0,-100.00,NW,319,4.0,6.0,76,0.00,,,0.00,0.000000,,2013-02-10 04:40:00,
2013-02-09 22:01:00,29.0,22.0,-100.00,NW,319,4.0,6.0,76,0.00,,,0.00,0.000000,,2013-02-10 05:01:00,
2013-02-09 22:11:00,29.0,22.0,-100.00,NW,319,4.0,6.0,76,0.00,,,0.00,0.000000,,2013-02-10 05:11:00,
2013-02-09 22:22:00,29.0,22.0,-100.00,NW,319,4.0,6.0,76,0.00,,,0.00,0.000000,,2013-02-10 05:22:00,
2013-02-09 22:31:00,29.0,22.0,-100.00,NW,319,4.0,6.0,76,0.00,,,0.00,0.000000,,2013-02-10 05:31:00,
2013-02-09 22:40:00,28.0,20.0,-100.00,WNW,285,3.0,5.0,73,0.00,,,0.00,0.000000,,2013-02-10 05:40:00,
2013-02-09 23:01:00,28.0,20.0,-100.00,WNW,285,3.0,5.0,73,0.00,,,0.00,0.000000,,2013-02-10 06:01:00,
2013-02-09 23:11:00,28.0,20.0,-100.00,WNW,285,3.0,5.0,73,0.00,,,0.00,0.000000,,2013-02-10 06:11:00,
2013-02-09 23:21:00,28.0,20.0,-100.00,WNW,285,3.0,5.0,73,0.00,,,0.00,0.000000,,2013-02-10 06:21:00,
2013-02-09 23:32:00,28.0,20.0,-100.00,WNW,285,3.0,5.0,73,0.00,,,0.00,0.000000,,2013-02-10 06:32:00,
2013-02-09 23:40:00,27.0,20.0,-100.00,NW,320,6.0,8.0,73,0.00,,,0.00,0.000000,,2013-02-10 06:40:00,